UAL81 BGGH-KEWR

Flight info

Callsign UAL81
Flight time 3h 50m
Altitude 36000
Route AMAB1A AMABI IRBIM YBC HANAA FLOSI4
Aircraft B738/M-N33264/C

Departure

Time 2026-04-25 18:23
Airport Nuuk International Airport (BGGH)

Arrival

Time 2026-04-25 22:14
Airport Newark Liberty International Airport (KEWR)
Time Latitude Longitude Altitude Speed Heading
2026-04-25 18:05 64.19142 -51.67441 268 ft 0 kts 189°
2026-04-25 18:13 64.19142 -51.67442 268 ft 0 kts 189°
2026-04-25 18:14 64.19141 -51.67442 268 ft 0 kts 189°
2026-04-25 18:14 64.19127 -51.67443 268 ft 3 kts 179°
2026-04-25 18:14 64.19099 -51.67453 268 ft 6 kts 199°
2026-04-25 18:14 64.19060 -51.67524 268 ft 7 kts 255°
2026-04-25 18:15 64.19057 -51.67583 268 ft 1 kts 251°
2026-04-25 18:15 64.19037 -51.67605 268 ft 5 kts 185°
2026-04-25 18:15 64.18980 -51.67638 268 ft 11 kts 197°
2026-04-25 18:15 64.18887 -51.67707 268 ft 17 kts 197°
2026-04-25 18:16 64.18756 -51.67799 268 ft 22 kts 198°
2026-04-25 18:16 64.18626 -51.67894 268 ft 10 kts 204°
2026-04-25 18:16 64.18607 -51.68005 268 ft 0 kts 288°
2026-04-25 18:17 64.18608 -51.68007 268 ft 0 kts 305°
2026-04-25 18:17 64.18616 -51.68032 268 ft 5 kts 306°
2026-04-25 18:17 64.18646 -51.68135 268 ft 8 kts 295°
2026-04-25 18:17 64.18647 -51.68227 268 ft 4 kts 236°
2026-04-25 18:18 64.18622 -51.68271 268 ft 5 kts 200°
2026-04-25 18:18 64.18568 -51.68312 268 ft 11 kts 198°
2026-04-25 18:18 64.18475 -51.68379 268 ft 17 kts 197°
2026-04-25 18:18 64.18340 -51.68481 268 ft 23 kts 197°
2026-04-25 18:19 64.18247 -51.68541 268 ft 6 kts 178°
2026-04-25 18:19 64.18218 -51.68505 268 ft 4 kts 155°
2026-04-25 18:19 64.18199 -51.68499 268 ft 0 kts 180°
2026-04-25 18:21 64.18198 -51.68499 268 ft 0 kts 182°
2026-04-25 18:21 64.18188 -51.68506 268 ft 3 kts 197°
2026-04-25 18:21 64.18164 -51.68541 268 ft 4 kts 241°
2026-04-25 18:21 64.18171 -51.68589 268 ft 3 kts 336°
2026-04-25 18:22 64.18188 -51.68588 268 ft 1 kts 15°
2026-04-25 18:22 64.18195 -51.68583 268 ft 1 kts 16°
2026-04-25 18:22 64.18280 -51.68522 268 ft 25 kts 18°
2026-04-25 18:22 64.18481 -51.68373 268 ft 47 kts 17°
2026-04-25 18:23 64.18992 -51.68000 269 ft 104 kts 17°
2026-04-25 18:23 64.19823 -51.67392 295 ft 142 kts 17°
2026-04-25 18:23 64.20770 -51.66743 719 ft 138 kts 15°
2026-04-25 18:23 64.21740 -51.66142 1021 ft 156 kts 15°
2026-04-25 18:24 64.22797 -51.65414 1569 ft 160 kts 23°
2026-04-25 18:24 64.23641 -51.63969 2353 ft 155 kts 50°
2026-04-25 18:24 64.24082 -51.61574 2767 ft 176 kts 72°
2026-04-25 18:24 64.24115 -51.58715 3396 ft 188 kts 95°
2026-04-25 18:25 64.23495 -51.56031 4097 ft 200 kts 129°
2026-04-25 18:25 64.22237 -51.54372 4542 ft 223 kts 164°
2026-04-25 18:25 64.20683 -51.54332 5244 ft 225 kts 195°
2026-04-25 18:25 64.19333 -51.56058 5850 ft 227 kts 229°
2026-04-25 18:26 64.18304 -51.58908 6413 ft 236 kts 240°
2026-04-25 18:26 64.17665 -51.62334 7080 ft 238 kts 256°
2026-04-25 18:26 64.17142 -51.65902 7668 ft 238 kts 256°
2026-04-25 18:26 64.16493 -51.69487 8306 ft 251 kts 245°
2026-04-25 18:27 64.15506 -51.72918 8953 ft 265 kts 236°
2026-04-25 18:27 64.14314 -51.76146 9582 ft 276 kts 231°
2026-04-25 18:27 64.12964 -51.79348 10205 ft 283 kts 228°
2026-04-25 18:27 64.11549 -51.82449 10831 ft 282 kts 226°
2026-04-25 18:28 64.10107 -51.85478 11584 ft 286 kts 226°
2026-04-25 18:28 64.08588 -51.88600 12222 ft 300 kts 225°
2026-04-25 18:28 64.07006 -51.91808 12898 ft 313 kts 225°
2026-04-25 18:29 64.03640 -51.98560 14240 ft 337 kts 225°
2026-04-25 18:29 64.01844 -52.02139 14920 ft 349 kts 225°
2026-04-25 18:30 63.96159 -52.13419 16913 ft 379 kts 225°
2026-04-25 18:30 63.94144 -52.17404 17568 ft 388 kts 225°
2026-04-25 18:30 63.92102 -52.21426 18205 ft 393 kts 225°
2026-04-25 18:30 63.90042 -52.25483 18828 ft 397 kts 225°
2026-04-25 18:31 63.87987 -52.29518 19436 ft 398 kts 225°
2026-04-25 18:31 63.85888 -52.33626 20050 ft 401 kts 225°
2026-04-25 18:31 63.83767 -52.37783 20661 ft 405 kts 225°
2026-04-25 18:31 63.81647 -52.41919 21264 ft 407 kts 225°
2026-04-25 18:32 63.79508 -52.46088 21859 ft 411 kts 226°
2026-04-25 18:32 63.77335 -52.50313 22454 ft 414 kts 226°
2026-04-25 18:32 63.75166 -52.54522 23037 ft 417 kts 226°
2026-04-25 18:32 63.72970 -52.58769 23616 ft 420 kts 226°
2026-04-25 18:33 63.70771 -52.63022 24163 ft 423 kts 226°
2026-04-25 18:33 63.68498 -52.67404 24564 ft 431 kts 225°
2026-04-25 18:33 63.66216 -52.71791 24903 ft 439 kts 225°
2026-04-25 18:33 63.63895 -52.76257 25247 ft 447 kts 225°
2026-04-25 18:34 63.61533 -52.80772 25591 ft 454 kts 225°
2026-04-25 18:34 63.59124 -52.85376 25939 ft 461 kts 225°
2026-04-25 18:34 63.56657 -52.90077 26307 ft 465 kts 225°
2026-04-25 18:34 63.54205 -52.94745 26773 ft 463 kts 224°
2026-04-25 18:35 63.51763 -52.99365 27246 ft 459 kts 225°
2026-04-25 18:35 63.49332 -53.03968 27722 ft 456 kts 225°
2026-04-25 18:35 63.46930 -53.08504 27915 ft 460 kts 225°
2026-04-25 18:35 63.44485 -53.13117 27921 ft 462 kts 225°
2026-04-25 18:36 63.42035 -53.17719 27934 ft 463 kts 225°
2026-04-25 18:36 63.39595 -53.22293 27937 ft 462 kts 225°
2026-04-25 18:36 63.37132 -53.26902 27936 ft 462 kts 225°
2026-04-25 18:36 63.34700 -53.31438 27937 ft 461 kts 225°
2026-04-25 18:37 63.32246 -53.36016 27935 ft 462 kts 225°
2026-04-25 18:37 63.29781 -53.40595 27936 ft 461 kts 225°
2026-04-25 18:37 63.27336 -53.45127 27935 ft 462 kts 225°
2026-04-25 18:37 63.24857 -53.49713 27934 ft 461 kts 225°
2026-04-25 18:38 63.22394 -53.54259 27937 ft 462 kts 225°
2026-04-25 18:38 63.19935 -53.58781 27934 ft 461 kts 225°
2026-04-25 18:38 63.17514 -53.63235 27935 ft 461 kts 225°
2026-04-25 18:38 63.15031 -53.67783 27940 ft 462 kts 224°
2026-04-25 18:39 63.12573 -53.72280 27937 ft 462 kts 224°
2026-04-25 18:39 63.10111 -53.76769 27939 ft 462 kts 224°
2026-04-25 18:39 63.07655 -53.81243 27938 ft 462 kts 224°
2026-04-25 18:39 63.05181 -53.85736 27939 ft 461 kts 224°
2026-04-25 18:40 63.02712 -53.90213 27939 ft 461 kts 224°
2026-04-25 18:40 63.00245 -53.94668 27938 ft 461 kts 224°
2026-04-25 18:40 62.97779 -53.99118 27936 ft 463 kts 224°
2026-04-25 18:40 62.95297 -54.03586 27939 ft 462 kts 224°
2026-04-25 18:41 62.92833 -54.08012 27939 ft 461 kts 224°
2026-04-25 18:41 62.90334 -54.12488 27937 ft 462 kts 224°
2026-04-25 18:41 62.87850 -54.16924 27935 ft 463 kts 224°
2026-04-25 18:41 62.85399 -54.21305 27936 ft 461 kts 224°
2026-04-25 18:42 62.82922 -54.25711 27934 ft 462 kts 224°
2026-04-25 18:42 62.81248 -54.28680 27934 ft 462 kts 224°
2026-04-25 18:42 62.77936 -54.34557 27935 ft 462 kts 224°
2026-04-25 18:42 62.75480 -54.38893 27933 ft 462 kts 224°
2026-04-25 18:43 62.72993 -54.43284 27935 ft 462 kts 224°
2026-04-25 18:43 62.70474 -54.47719 27932 ft 462 kts 224°
2026-04-25 18:43 62.68009 -54.52044 27933 ft 461 kts 224°
2026-04-25 18:43 62.65516 -54.56412 27935 ft 462 kts 224°
2026-04-25 18:44 62.63012 -54.60793 27933 ft 462 kts 224°
2026-04-25 18:44 62.60521 -54.65138 27932 ft 462 kts 223°
2026-04-25 18:44 62.58024 -54.69479 27940 ft 462 kts 223°
2026-04-25 18:44 62.55533 -54.73810 27936 ft 463 kts 223°
2026-04-25 18:45 62.53001 -54.78194 27939 ft 463 kts 223°
2026-04-25 18:45 62.50489 -54.82537 27936 ft 462 kts 223°
2026-04-25 18:45 62.47974 -54.86876 27938 ft 463 kts 223°
2026-04-25 18:45 62.45495 -54.91143 27937 ft 462 kts 223°
2026-04-25 18:46 62.42980 -54.95460 27937 ft 462 kts 223°
2026-04-25 18:46 62.40509 -54.99699 27937 ft 462 kts 223°
2026-04-25 18:46 62.37967 -55.04048 27937 ft 462 kts 223°
2026-04-25 18:46 62.35462 -55.08320 27937 ft 463 kts 223°
2026-04-25 18:47 62.32903 -55.12676 27935 ft 463 kts 223°
2026-04-25 18:47 62.30362 -55.16993 27937 ft 463 kts 223°
2026-04-25 18:47 62.27848 -55.21252 27936 ft 462 kts 223°
2026-04-25 18:47 62.25315 -55.25534 27935 ft 463 kts 223°
2026-04-25 18:48 62.22778 -55.29820 27936 ft 462 kts 223°
2026-04-25 18:48 62.20252 -55.34069 27937 ft 463 kts 223°
2026-04-25 18:48 62.17752 -55.38268 27934 ft 463 kts 223°
2026-04-25 18:48 62.15204 -55.42536 27935 ft 463 kts 223°
2026-04-25 18:49 62.12645 -55.46823 27934 ft 461 kts 223°
2026-04-25 18:49 62.10139 -55.51007 27936 ft 463 kts 223°
2026-04-25 18:49 62.07621 -55.55200 27932 ft 462 kts 223°
2026-04-25 18:49 62.05090 -55.59404 27936 ft 462 kts 223°
2026-04-25 18:50 62.02526 -55.63658 27934 ft 463 kts 223°
2026-04-25 18:50 61.99989 -55.67856 27939 ft 463 kts 222°
2026-04-25 18:50 61.97407 -55.72115 27938 ft 464 kts 222°
2026-04-25 18:50 61.94873 -55.76292 27940 ft 464 kts 222°
2026-04-25 18:51 61.92325 -55.80483 27938 ft 462 kts 222°
2026-04-25 18:51 61.90663 -55.83208 27941 ft 463 kts 222°
2026-04-25 18:51 61.87246 -55.88805 27935 ft 463 kts 222°
2026-04-25 18:51 61.84701 -55.92958 27937 ft 463 kts 222°
2026-04-25 18:52 61.82186 -55.97052 27937 ft 463 kts 222°
2026-04-25 18:52 61.79646 -56.01195 27935 ft 463 kts 222°
2026-04-25 18:52 61.77074 -56.05364 27937 ft 462 kts 222°
2026-04-25 18:52 61.74557 -56.09438 27935 ft 463 kts 222°
2026-04-25 18:53 61.71986 -56.13593 27936 ft 463 kts 222°
2026-04-25 18:53 61.69455 -56.17671 27936 ft 463 kts 222°
2026-04-25 18:53 61.66902 -56.21782 27936 ft 463 kts 222°
2026-04-25 18:53 61.64334 -56.25903 27935 ft 463 kts 222°
2026-04-25 18:54 61.59232 -56.34072 27933 ft 463 kts 222°
2026-04-25 18:54 61.56663 -56.38170 27934 ft 464 kts 222°
2026-04-25 18:54 61.54113 -56.42229 27936 ft 464 kts 222°
2026-04-25 18:55 61.51536 -56.46321 27934 ft 464 kts 222°
2026-04-25 18:55 61.48964 -56.50404 27935 ft 463 kts 222°
2026-04-25 18:55 61.46377 -56.54490 27932 ft 463 kts 222°
2026-04-25 18:55 61.43827 -56.58517 27935 ft 463 kts 222°
2026-04-25 18:56 61.41248 -56.62579 27931 ft 462 kts 222°
2026-04-25 18:56 61.38695 -56.66592 27939 ft 464 kts 221°
2026-04-25 18:56 61.36093 -56.70671 27936 ft 464 kts 221°
2026-04-25 18:56 61.33525 -56.74696 27939 ft 464 kts 221°
2026-04-25 18:57 61.30938 -56.78735 27938 ft 464 kts 221°
2026-04-25 18:57 61.28352 -56.82768 27939 ft 464 kts 221°
2026-04-25 18:57 61.25768 -56.86783 27936 ft 463 kts 221°
2026-04-25 18:57 61.24053 -56.89444 27940 ft 463 kts 221°
2026-04-25 18:58 61.20609 -56.94780 27938 ft 464 kts 221°
2026-04-25 18:58 61.15421 -57.02792 27938 ft 464 kts 221°
2026-04-25 18:58 61.12843 -57.06755 27938 ft 464 kts 221°
2026-04-25 18:59 61.07690 -57.14668 27939 ft 464 kts 221°
2026-04-25 18:59 61.02514 -57.22572 27939 ft 464 kts 221°
2026-04-25 19:00 60.97348 -57.30434 27936 ft 464 kts 221°
2026-04-25 19:00 60.94762 -57.34357 27936 ft 464 kts 221°
2026-04-25 19:01 60.89541 -57.42249 27934 ft 463 kts 221°
2026-04-25 19:01 60.86953 -57.46152 27932 ft 463 kts 221°
2026-04-25 19:01 60.84349 -57.50070 27935 ft 463 kts 221°
2026-04-25 19:01 60.81783 -57.53925 27933 ft 463 kts 221°
2026-04-25 19:02 60.76588 -57.61700 27932 ft 464 kts 221°
2026-04-25 19:02 60.73963 -57.65617 27934 ft 464 kts 220°
2026-04-25 19:02 60.71363 -57.69484 27937 ft 464 kts 220°
2026-04-25 19:03 60.66993 -57.75975 27939 ft 464 kts 220°
2026-04-25 19:03 60.63524 -57.81116 27937 ft 464 kts 220°
2026-04-25 19:03 60.60929 -57.84943 27938 ft 464 kts 220°
2026-04-25 19:04 60.55733 -57.92592 27938 ft 464 kts 220°
2026-04-25 19:04 60.53123 -57.96425 27936 ft 464 kts 220°
2026-04-25 19:05 60.47898 -58.04072 27935 ft 464 kts 220°
2026-04-25 19:05 60.42669 -58.11693 27938 ft 464 kts 220°
2026-04-25 19:05 60.40041 -58.15512 27936 ft 465 kts 220°
2026-04-25 19:06 60.37432 -58.19292 27937 ft 465 kts 220°
2026-04-25 19:06 60.32208 -58.26850 27935 ft 464 kts 220°
2026-04-25 19:06 60.29558 -58.30664 27934 ft 463 kts 220°
2026-04-25 19:07 60.24333 -58.38175 27937 ft 464 kts 220°
2026-04-25 19:07 60.21708 -58.41937 27934 ft 464 kts 220°
2026-04-25 19:08 60.16454 -58.49440 27935 ft 465 kts 220°
2026-04-25 19:08 60.13842 -58.53159 27934 ft 464 kts 220°
2026-04-25 19:09 60.05962 -58.64339 27934 ft 465 kts 220°
2026-04-25 19:09 60.04223 -58.66795 27939 ft 466 kts 220°
2026-04-25 19:09 59.98064 -58.75473 27940 ft 465 kts 220°
2026-04-25 19:10 59.95438 -58.79163 27940 ft 465 kts 219°
2026-04-25 19:10 59.92783 -58.82884 27939 ft 464 kts 220°
2026-04-25 19:10 59.90154 -58.86560 27940 ft 465 kts 220°
2026-04-25 19:10 59.87503 -58.90261 27937 ft 465 kts 220°
2026-04-25 19:11 59.84853 -58.93951 27936 ft 465 kts 219°
2026-04-25 19:11 59.82219 -58.97613 27937 ft 465 kts 220°
2026-04-25 19:11 59.79594 -59.01260 27934 ft 465 kts 220°
2026-04-25 19:11 59.76948 -59.04926 27936 ft 464 kts 219°
2026-04-25 19:12 59.74318 -59.08563 27935 ft 465 kts 219°
2026-04-25 19:12 59.71645 -59.12248 27937 ft 465 kts 220°
2026-04-25 19:12 59.69007 -59.15883 27936 ft 465 kts 220°
2026-04-25 19:12 59.66359 -59.19523 27934 ft 465 kts 220°
2026-04-25 19:13 59.63713 -59.23148 27937 ft 465 kts 220°
2026-04-25 19:13 59.61051 -59.26792 27934 ft 464 kts 220°
2026-04-25 19:13 59.58423 -59.30383 27935 ft 464 kts 220°
2026-04-25 19:13 59.55786 -59.33976 27935 ft 465 kts 220°
2026-04-25 19:14 59.53144 -59.37575 27934 ft 465 kts 220°
2026-04-25 19:14 59.51339 -59.40031 27934 ft 465 kts 220°
2026-04-25 19:14 59.47823 -59.44799 27934 ft 465 kts 220°
2026-04-25 19:14 59.45185 -59.48369 27934 ft 464 kts 220°
2026-04-25 19:15 59.42508 -59.51981 27932 ft 465 kts 220°
2026-04-25 19:15 59.39883 -59.55516 27935 ft 465 kts 220°
2026-04-25 19:15 59.37201 -59.59127 27933 ft 465 kts 219°
2026-04-25 19:15 59.34531 -59.62714 27934 ft 464 kts 219°
2026-04-25 19:16 59.31898 -59.66236 27934 ft 464 kts 219°
2026-04-25 19:16 59.29226 -59.69809 27939 ft 466 kts 219°
2026-04-25 19:16 59.26545 -59.73390 27939 ft 466 kts 219°
2026-04-25 19:16 59.23888 -59.76933 27937 ft 465 kts 219°
2026-04-25 19:17 59.21246 -59.80444 27940 ft 465 kts 219°
2026-04-25 19:17 59.18575 -59.83987 27938 ft 464 kts 219°
2026-04-25 19:17 59.15919 -59.87503 27939 ft 465 kts 219°
2026-04-25 19:17 59.13227 -59.91066 27937 ft 465 kts 219°
2026-04-25 19:18 59.10578 -59.94559 27936 ft 466 kts 219°
2026-04-25 19:18 59.07921 -59.98061 27940 ft 465 kts 219°
2026-04-25 19:18 59.05227 -60.01602 27937 ft 466 kts 219°
2026-04-25 19:18 59.02569 -60.05087 27936 ft 465 kts 219°
2026-04-25 19:19 58.99866 -60.08630 27937 ft 464 kts 219°
2026-04-25 19:19 58.97210 -60.12100 27938 ft 465 kts 219°
2026-04-25 19:19 58.94544 -60.15578 27937 ft 466 kts 219°
2026-04-25 19:19 58.92764 -60.17894 27935 ft 465 kts 219°
2026-04-25 19:20 58.89176 -60.22560 27936 ft 466 kts 219°
2026-04-25 19:20 58.86489 -60.26042 27934 ft 466 kts 219°
2026-04-25 19:20 58.83830 -60.29487 27933 ft 465 kts 219°
2026-04-25 19:20 58.81144 -60.32961 27934 ft 466 kts 219°
2026-04-25 19:21 58.78478 -60.36395 27933 ft 466 kts 219°
2026-04-25 19:21 58.73097 -60.43317 27934 ft 464 kts 219°
2026-04-25 19:21 58.70414 -60.46757 27933 ft 465 kts 219°
2026-04-25 19:22 58.67736 -60.50182 27934 ft 466 kts 219°
2026-04-25 19:22 58.64996 -60.53442 27911 ft 471 kts 211°
2026-04-25 19:22 58.59256 -60.59518 27942 ft 469 kts 215°
2026-04-25 19:23 58.56406 -60.62566 27934 ft 469 kts 214°
2026-04-25 19:23 58.50696 -60.68538 27942 ft 470 kts 213°
2026-04-25 19:23 58.47858 -60.71489 27939 ft 469 kts 213°
2026-04-25 19:24 58.44983 -60.74474 27938 ft 469 kts 213°
2026-04-25 19:24 58.42110 -60.77445 27939 ft 469 kts 213°
2026-04-25 19:24 58.36401 -60.83334 27938 ft 469 kts 213°
2026-04-25 19:25 58.30678 -60.89219 27940 ft 470 kts 213°
2026-04-25 19:25 58.27800 -60.92169 27936 ft 469 kts 213°
2026-04-25 19:25 58.24929 -60.95106 27938 ft 470 kts 213°
2026-04-25 19:26 58.22065 -60.98033 27938 ft 469 kts 213°
2026-04-25 19:26 58.19223 -61.00925 27938 ft 469 kts 213°
2026-04-25 19:26 58.16347 -61.03853 27937 ft 471 kts 213°
2026-04-25 19:26 58.13487 -61.06760 27937 ft 469 kts 213°
2026-04-25 19:27 58.10625 -61.09658 27939 ft 469 kts 213°
2026-04-25 19:27 58.08709 -61.11598 27937 ft 470 kts 213°
2026-04-25 19:27 58.04868 -61.15479 27939 ft 470 kts 213°
2026-04-25 19:27 58.02006 -61.18366 27936 ft 470 kts 213°
2026-04-25 19:28 57.99135 -61.21256 27937 ft 470 kts 213°
2026-04-25 19:28 57.96229 -61.24171 27936 ft 470 kts 213°
2026-04-25 19:28 57.93380 -61.27031 27937 ft 469 kts 213°
2026-04-25 19:28 57.90513 -61.29899 27937 ft 470 kts 213°
2026-04-25 19:29 57.87621 -61.32785 27934 ft 470 kts 213°
2026-04-25 19:29 57.84753 -61.35647 27935 ft 470 kts 213°
2026-04-25 19:29 57.81876 -61.38512 27933 ft 469 kts 213°
2026-04-25 19:29 57.79018 -61.41352 27935 ft 470 kts 213°
2026-04-25 19:30 57.76132 -61.44211 27933 ft 470 kts 213°
2026-04-25 19:30 57.73228 -61.47084 27934 ft 469 kts 213°
2026-04-25 19:30 57.70355 -61.49925 27932 ft 469 kts 213°
2026-04-25 19:30 57.67474 -61.52770 27930 ft 469 kts 213°
2026-04-25 19:31 57.64569 -61.55631 27918 ft 469 kts 213°
2026-04-25 19:31 57.61689 -61.58458 27914 ft 470 kts 213°
2026-04-25 19:31 57.58805 -61.61289 27906 ft 469 kts 213°
2026-04-25 19:31 57.55885 -61.64145 27902 ft 470 kts 213°
2026-04-25 19:32 57.53008 -61.66959 27903 ft 471 kts 212°
2026-04-25 19:32 57.50088 -61.69809 27896 ft 470 kts 212°
2026-04-25 19:32 57.47201 -61.72620 27896 ft 470 kts 212°
2026-04-25 19:32 57.45251 -61.74517 27897 ft 470 kts 212°
2026-04-25 19:33 57.41405 -61.78248 27904 ft 470 kts 212°
2026-04-25 19:33 57.38558 -61.81006 27911 ft 469 kts 212°
2026-04-25 19:33 57.35631 -61.83837 27922 ft 470 kts 212°
2026-04-25 19:33 57.32756 -61.86612 27924 ft 471 kts 212°
2026-04-25 19:34 57.29845 -61.89418 27931 ft 469 kts 212°
2026-04-25 19:34 57.26889 -61.92262 27933 ft 470 kts 212°
2026-04-25 19:34 57.23971 -61.95063 27937 ft 471 kts 212°
2026-04-25 19:34 57.20989 -61.97918 27933 ft 470 kts 212°
2026-04-25 19:35 57.17977 -62.00802 27933 ft 470 kts 212°
2026-04-25 19:35 57.15017 -62.03627 27926 ft 470 kts 212°
2026-04-25 19:35 57.12082 -62.06425 27921 ft 470 kts 212°
2026-04-25 19:35 57.09077 -62.09285 27916 ft 469 kts 212°
2026-04-25 19:36 57.06085 -62.12123 27914 ft 470 kts 212°
2026-04-25 19:36 57.03137 -62.14920 27905 ft 470 kts 212°
2026-04-25 19:36 57.00208 -62.17690 27903 ft 470 kts 212°
2026-04-25 19:36 56.97305 -62.20435 27898 ft 470 kts 212°
2026-04-25 19:37 56.94411 -62.23157 27893 ft 470 kts 212°
2026-04-25 19:37 56.91472 -62.25923 27888 ft 469 kts 212°
2026-04-25 19:37 56.88590 -62.28632 27880 ft 470 kts 212°
2026-04-25 19:37 56.85668 -62.31375 27875 ft 471 kts 212°
2026-04-25 19:38 56.82758 -62.34097 27870 ft 471 kts 212°
2026-04-25 19:38 56.79828 -62.36837 27872 ft 470 kts 212°
2026-04-25 19:38 56.76893 -62.39574 27873 ft 470 kts 212°
2026-04-25 19:38 56.73968 -62.42297 27881 ft 470 kts 212°
2026-04-25 19:39 56.71035 -62.45026 27886 ft 470 kts 212°
2026-04-25 19:39 56.68135 -62.47719 27891 ft 470 kts 212°
2026-04-25 19:39 56.65189 -62.50442 27902 ft 470 kts 212°
2026-04-25 19:39 56.62251 -62.53162 27902 ft 470 kts 212°
2026-04-25 19:40 56.59324 -62.55861 27905 ft 469 kts 212°
2026-04-25 19:40 56.56399 -62.58556 27904 ft 470 kts 212°
2026-04-25 19:40 56.53490 -62.61234 27901 ft 470 kts 212°
2026-04-25 19:40 56.50523 -62.63959 27898 ft 470 kts 212°
2026-04-25 19:41 56.47570 -62.66666 27896 ft 470 kts 211°
2026-04-25 19:41 56.44642 -62.69344 27885 ft 471 kts 212°
2026-04-25 19:41 56.41694 -62.72039 27877 ft 471 kts 211°
2026-04-25 19:41 56.39733 -62.73825 27871 ft 471 kts 211°
2026-04-25 19:42 56.35804 -62.77402 27865 ft 471 kts 212°
2026-04-25 19:42 56.32843 -62.80097 27863 ft 471 kts 211°
2026-04-25 19:42 56.29913 -62.82753 27863 ft 471 kts 212°
2026-04-25 19:42 56.26961 -62.85426 27863 ft 471 kts 212°
2026-04-25 19:43 56.24015 -62.88090 27860 ft 471 kts 211°
2026-04-25 19:43 56.21059 -62.90754 27860 ft 470 kts 212°
2026-04-25 19:43 56.18131 -62.93395 27863 ft 471 kts 212°
2026-04-25 19:43 56.15189 -62.96042 27862 ft 470 kts 211°
2026-04-25 19:44 56.12215 -62.98711 27864 ft 470 kts 211°
2026-04-25 19:44 56.09252 -63.01360 27864 ft 471 kts 212°
2026-04-25 19:44 56.06306 -63.04002 27861 ft 472 kts 211°
2026-04-25 19:44 56.03357 -63.06632 27858 ft 471 kts 212°
2026-04-25 19:45 56.00407 -63.09265 27852 ft 471 kts 211°
2026-04-25 19:45 55.97432 -63.11911 27849 ft 471 kts 211°
2026-04-25 19:45 55.94476 -63.14539 27848 ft 471 kts 211°
2026-04-25 19:45 55.91539 -63.17141 27844 ft 471 kts 212°
2026-04-25 19:46 55.88555 -63.19784 27840 ft 471 kts 211°
2026-04-25 19:46 55.85626 -63.22375 27835 ft 470 kts 212°
2026-04-25 19:46 55.82685 -63.24973 27834 ft 471 kts 212°
2026-04-25 19:46 55.79779 -63.27532 27826 ft 471 kts 212°
2026-04-25 19:47 55.76847 -63.30107 27823 ft 471 kts 212°
2026-04-25 19:47 55.73912 -63.32684 27824 ft 471 kts 212°
2026-04-25 19:47 55.70980 -63.35258 27820 ft 471 kts 211°
2026-04-25 19:47 55.68008 -63.37853 27820 ft 471 kts 212°
2026-04-25 19:48 55.65049 -63.40443 27818 ft 471 kts 211°
2026-04-25 19:48 55.62135 -63.42983 27818 ft 471 kts 211°
2026-04-25 19:48 55.59203 -63.45534 27817 ft 471 kts 212°
2026-04-25 19:48 55.56237 -63.48112 27814 ft 471 kts 212°
2026-04-25 19:49 55.53304 -63.50659 27813 ft 470 kts 211°
2026-04-25 19:49 55.51361 -63.52341 27812 ft 470 kts 211°
2026-04-25 19:49 55.47460 -63.55713 27812 ft 471 kts 211°
2026-04-25 19:49 55.44511 -63.58260 27814 ft 470 kts 212°
2026-04-25 19:50 55.38629 -63.63327 27824 ft 470 kts 212°
2026-04-25 19:50 55.35663 -63.65876 27833 ft 471 kts 211°
2026-04-25 19:50 55.32759 -63.68364 27842 ft 471 kts 211°
2026-04-25 19:51 55.29796 -63.70902 27848 ft 471 kts 211°
2026-04-25 19:51 55.26859 -63.73415 27857 ft 472 kts 211°
2026-04-25 19:51 55.23937 -63.75911 27867 ft 472 kts 211°
2026-04-25 19:51 55.20959 -63.78443 27865 ft 471 kts 211°
2026-04-25 19:52 55.18034 -63.80933 27865 ft 471 kts 211°
2026-04-25 19:52 55.15102 -63.83419 27862 ft 471 kts 211°
2026-04-25 19:52 55.12104 -63.85962 27857 ft 471 kts 211°
2026-04-25 19:52 55.09174 -63.88441 27857 ft 471 kts 211°
2026-04-25 19:53 55.06206 -63.90952 27852 ft 471 kts 211°
2026-04-25 19:53 55.03272 -63.93429 27848 ft 471 kts 211°
2026-04-25 19:53 55.00332 -63.95904 27847 ft 471 kts 211°
2026-04-25 19:53 54.97385 -63.98379 27844 ft 471 kts 211°
2026-04-25 19:54 54.94433 -64.00857 27843 ft 472 kts 211°
2026-04-25 19:54 54.91492 -64.03322 27840 ft 471 kts 211°
2026-04-25 19:54 54.88515 -64.05815 27838 ft 471 kts 211°
2026-04-25 19:54 54.86573 -64.07434 27835 ft 472 kts 211°
2026-04-25 19:55 54.82638 -64.10718 27831 ft 472 kts 211°
2026-04-25 19:55 54.79697 -64.13168 27830 ft 470 kts 211°
2026-04-25 19:55 54.76745 -64.15620 27830 ft 471 kts 211°
2026-04-25 19:55 54.73757 -64.18101 27823 ft 471 kts 211°
2026-04-25 19:56 54.70824 -64.20531 27827 ft 472 kts 211°
2026-04-25 19:56 54.67863 -64.22981 27823 ft 472 kts 211°
2026-04-25 19:56 54.64887 -64.25439 27824 ft 471 kts 211°
2026-04-25 19:56 54.61962 -64.27849 27828 ft 472 kts 211°
2026-04-25 19:57 54.59027 -64.30264 27830 ft 470 kts 211°
2026-04-25 19:57 54.56070 -64.32698 27830 ft 472 kts 211°
2026-04-25 19:57 54.53095 -64.35137 27832 ft 471 kts 211°
2026-04-25 19:57 54.50135 -64.37557 27831 ft 472 kts 211°
2026-04-25 19:58 54.47214 -64.39949 27832 ft 471 kts 211°
2026-04-25 19:58 54.44247 -64.42373 27832 ft 472 kts 211°
2026-04-25 19:58 54.41255 -64.44813 27832 ft 471 kts 211°
2026-04-25 19:58 54.38314 -64.47203 27834 ft 472 kts 211°
2026-04-25 19:59 54.35337 -64.49628 27831 ft 472 kts 211°
2026-04-25 19:59 54.32407 -64.52002 27834 ft 472 kts 211°
2026-04-25 19:59 54.29447 -64.54400 27833 ft 471 kts 211°
2026-04-25 19:59 54.26506 -64.56777 27835 ft 470 kts 211°
2026-04-25 20:00 54.23547 -64.59171 27835 ft 471 kts 211°
2026-04-25 20:00 54.21596 -64.60740 27837 ft 472 kts 211°
2026-04-25 20:00 54.17643 -64.63922 27836 ft 470 kts 211°
2026-04-25 20:00 54.14700 -64.66288 27840 ft 470 kts 210°
2026-04-25 20:01 54.08781 -64.71036 27842 ft 472 kts 210°
2026-04-25 20:01 54.05824 -64.73399 27842 ft 472 kts 210°
2026-04-25 20:01 54.02853 -64.75771 27843 ft 473 kts 210°
2026-04-25 20:02 53.99883 -64.78141 27841 ft 472 kts 210°
2026-04-25 20:02 53.96947 -64.80476 27841 ft 471 kts 210°
2026-04-25 20:02 53.93973 -64.82842 27841 ft 471 kts 210°
2026-04-25 20:02 53.91013 -64.85189 27843 ft 471 kts 210°
2026-04-25 20:03 53.88049 -64.87536 27838 ft 472 kts 210°
2026-04-25 20:03 53.85074 -64.89890 27840 ft 472 kts 210°
2026-04-25 20:03 53.82095 -64.92247 27838 ft 473 kts 210°
2026-04-25 20:03 53.79107 -64.94599 27839 ft 471 kts 210°
2026-04-25 20:04 53.76118 -64.96951 27842 ft 472 kts 210°
2026-04-25 20:04 53.73158 -64.99280 27838 ft 472 kts 210°
2026-04-25 20:04 53.70181 -65.01617 27837 ft 472 kts 210°
2026-04-25 20:04 53.67166 -65.03982 27839 ft 471 kts 210°
2026-04-25 20:05 53.64208 -65.06292 27838 ft 472 kts 210°
2026-04-25 20:05 53.61244 -65.08611 27840 ft 472 kts 210°
2026-04-25 20:05 53.58236 -65.10953 27838 ft 471 kts 210°
2026-04-25 20:05 53.55260 -65.13277 27838 ft 472 kts 210°
2026-04-25 20:06 53.52275 -65.15595 27837 ft 472 kts 210°
2026-04-25 20:06 53.49221 -65.17963 27839 ft 472 kts 210°
2026-04-25 20:06 53.46217 -65.20292 27835 ft 472 kts 210°
2026-04-25 20:06 53.43194 -65.22633 27832 ft 473 kts 210°
2026-04-25 20:07 53.40226 -65.24923 27829 ft 472 kts 210°
2026-04-25 20:07 53.37250 -65.27222 27825 ft 472 kts 210°
2026-04-25 20:07 53.34277 -65.29510 27821 ft 472 kts 210°
2026-04-25 20:07 53.31250 -65.31840 27818 ft 472 kts 210°
2026-04-25 20:08 53.28282 -65.34120 27816 ft 473 kts 210°
2026-04-25 20:08 53.25255 -65.36439 27813 ft 471 kts 210°
2026-04-25 20:08 53.22265 -65.38724 27812 ft 470 kts 210°
2026-04-25 20:08 53.19301 -65.40996 27817 ft 472 kts 210°
2026-04-25 20:09 53.16288 -65.43294 27816 ft 473 kts 210°
2026-04-25 20:09 53.13259 -65.45598 27817 ft 472 kts 210°
2026-04-25 20:09 53.10266 -65.47879 27819 ft 472 kts 210°
2026-04-25 20:09 53.07276 -65.50150 27820 ft 472 kts 210°
2026-04-25 20:10 53.04286 -65.52414 27820 ft 472 kts 210°
2026-04-25 20:10 53.01246 -65.54721 27820 ft 471 kts 210°
2026-04-25 20:10 52.98248 -65.56988 27820 ft 472 kts 210°
2026-04-25 20:10 52.95239 -65.59257 27819 ft 472 kts 210°
2026-04-25 20:11 52.92233 -65.61523 27820 ft 472 kts 210°
2026-04-25 20:11 52.89246 -65.63769 27818 ft 472 kts 210°
2026-04-25 20:11 52.86207 -65.66054 27820 ft 472 kts 209°
2026-04-25 20:11 52.83203 -65.68308 27826 ft 473 kts 209°
2026-04-25 20:12 52.80226 -65.70541 27822 ft 472 kts 209°
2026-04-25 20:12 52.77220 -65.72788 27824 ft 472 kts 209°
2026-04-25 20:12 52.74206 -65.75040 27823 ft 473 kts 209°
2026-04-25 20:12 52.72214 -65.76524 27822 ft 473 kts 209°
2026-04-25 20:13 52.68149 -65.79554 27819 ft 472 kts 209°
2026-04-25 20:13 52.65154 -65.81780 27819 ft 472 kts 209°
2026-04-25 20:13 52.62152 -65.84007 27818 ft 473 kts 209°
2026-04-25 20:13 52.59129 -65.86249 27817 ft 473 kts 209°
2026-04-25 20:14 52.56065 -65.88517 27816 ft 473 kts 209°
2026-04-25 20:14 52.53023 -65.90765 27816 ft 472 kts 209°
2026-04-25 20:14 52.49985 -65.93004 27815 ft 472 kts 209°
2026-04-25 20:14 52.46913 -65.95268 27814 ft 472 kts 209°
2026-04-25 20:15 52.43819 -65.97544 27816 ft 473 kts 209°
2026-04-25 20:15 52.40752 -65.99798 27814 ft 473 kts 209°
2026-04-25 20:15 52.37680 -66.02051 27814 ft 472 kts 209°
2026-04-25 20:15 52.34611 -66.04295 27814 ft 472 kts 209°
2026-04-25 20:16 52.31501 -66.06572 27813 ft 473 kts 209°
2026-04-25 20:16 52.28400 -66.08837 27814 ft 472 kts 209°
2026-04-25 20:16 52.25316 -66.11086 27816 ft 473 kts 209°
2026-04-25 20:16 52.22233 -66.13326 27813 ft 473 kts 209°
2026-04-25 20:17 52.19176 -66.15550 27813 ft 473 kts 209°
2026-04-25 20:17 52.16096 -66.17783 27813 ft 472 kts 209°
2026-04-25 20:17 52.13010 -66.20019 27813 ft 472 kts 209°
2026-04-25 20:17 52.09981 -66.22210 27817 ft 472 kts 209°
2026-04-25 20:18 52.06905 -66.24430 27815 ft 473 kts 209°
2026-04-25 20:18 52.03837 -66.26643 27815 ft 471 kts 209°
2026-04-25 20:18 52.00803 -66.28826 27817 ft 473 kts 209°
2026-04-25 20:18 51.97759 -66.31016 27814 ft 472 kts 209°
2026-04-25 20:19 51.94751 -66.33179 27814 ft 473 kts 209°
2026-04-25 20:19 51.91728 -66.35342 27814 ft 472 kts 209°
2026-04-25 20:19 51.88646 -66.37549 27814 ft 472 kts 209°
2026-04-25 20:19 51.85542 -66.39768 27813 ft 472 kts 209°
2026-04-25 20:20 51.82520 -66.41924 27813 ft 471 kts 209°
2026-04-25 20:20 51.79404 -66.44144 27813 ft 473 kts 209°
2026-04-25 20:20 51.76348 -66.46320 27814 ft 473 kts 209°
2026-04-25 20:20 51.73269 -66.48508 27814 ft 472 kts 209°
2026-04-25 20:21 51.70228 -66.50665 27809 ft 471 kts 209°
2026-04-25 20:21 51.67245 -66.52779 27807 ft 472 kts 209°
2026-04-25 20:21 51.64192 -66.54939 27805 ft 472 kts 209°
2026-04-25 20:21 51.61180 -66.57066 27802 ft 473 kts 209°
2026-04-25 20:22 51.58161 -66.59193 27803 ft 473 kts 209°
2026-04-25 20:22 51.56139 -66.60618 27801 ft 472 kts 209°
2026-04-25 20:22 51.52079 -66.63477 27800 ft 473 kts 209°
2026-04-25 20:22 51.49007 -66.65630 27803 ft 473 kts 208°
2026-04-25 20:23 51.45911 -66.67802 27809 ft 473 kts 208°
2026-04-25 20:23 51.42819 -66.69966 27813 ft 473 kts 208°
2026-04-25 20:23 51.39684 -66.72159 27814 ft 474 kts 208°
2026-04-25 20:23 51.36599 -66.74313 27814 ft 472 kts 208°
2026-04-25 20:24 51.33571 -66.76420 27817 ft 473 kts 208°
2026-04-25 20:24 51.30515 -66.78552 27814 ft 473 kts 208°
2026-04-25 20:24 51.27465 -66.80667 27815 ft 472 kts 208°
2026-04-25 20:24 51.24395 -66.82800 27814 ft 472 kts 208°
2026-04-25 20:25 51.21338 -66.84917 27817 ft 472 kts 208°
2026-04-25 20:25 51.18246 -66.87058 27818 ft 473 kts 208°
2026-04-25 20:25 51.15125 -66.89214 27822 ft 474 kts 208°
2026-04-25 20:25 51.12034 -66.91347 27825 ft 473 kts 208°
2026-04-25 20:26 51.08945 -66.93478 27831 ft 473 kts 208°
2026-04-25 20:26 51.05792 -66.95647 27836 ft 472 kts 208°
2026-04-25 20:26 51.02676 -66.97783 27845 ft 473 kts 208°
2026-04-25 20:26 50.99602 -66.99893 27852 ft 473 kts 208°
2026-04-25 20:27 50.96499 -67.02016 27851 ft 473 kts 208°
2026-04-25 20:27 50.93330 -67.04183 27845 ft 474 kts 208°
2026-04-25 20:27 50.90209 -67.06315 27840 ft 474 kts 208°
2026-04-25 20:27 50.87161 -67.08395 27833 ft 472 kts 208°
2026-04-25 20:28 50.84124 -67.10462 27830 ft 473 kts 208°
2026-04-25 20:28 50.81068 -67.12538 27826 ft 473 kts 208°
2026-04-25 20:28 50.80262 -67.13084 27827 ft 473 kts 208°
2026-04-25 20:28 50.77322 -67.15158 27219 ft 502 kts 200°
2026-04-25 20:29 50.74020 -67.17345 27161 ft 519 kts 201°
2026-04-25 20:29 50.70591 -67.19643 27179 ft 528 kts 201°
2026-04-25 20:29 50.67168 -67.21951 27176 ft 527 kts 201°
2026-04-25 20:29 50.63722 -67.24272 27295 ft 519 kts 202°
2026-04-25 20:30 50.60363 -67.26535 27501 ft 512 kts 202°
2026-04-25 20:30 50.57072 -67.28746 27691 ft 505 kts 202°
2026-04-25 20:30 50.53746 -67.30975 27865 ft 500 kts 203°
2026-04-25 20:30 50.50491 -67.33162 27913 ft 500 kts 203°
2026-04-25 20:31 50.47229 -67.35349 27929 ft 501 kts 203°
2026-04-25 20:31 50.43955 -67.37537 27916 ft 501 kts 203°
2026-04-25 20:31 50.40674 -67.39727 27915 ft 501 kts 203°
2026-04-25 20:31 50.37374 -67.41924 27911 ft 501 kts 203°
2026-04-25 20:32 50.34175 -67.44054 27910 ft 500 kts 204°
2026-04-25 20:32 50.31060 -67.46123 27901 ft 500 kts 204°
2026-04-25 20:32 50.28045 -67.48126 27908 ft 500 kts 204°
2026-04-25 20:32 50.25035 -67.50119 27909 ft 500 kts 204°
2026-04-25 20:33 50.22062 -67.52086 27907 ft 500 kts 204°
2026-04-25 20:33 50.19059 -67.54069 27897 ft 499 kts 204°
2026-04-25 20:33 50.15914 -67.56144 27893 ft 500 kts 204°
2026-04-25 20:33 50.13822 -67.57521 27887 ft 499 kts 204°
2026-04-25 20:34 50.09595 -67.60304 27881 ft 500 kts 204°
2026-04-25 20:34 50.06337 -67.62445 27877 ft 500 kts 204°
2026-04-25 20:34 50.03095 -67.64571 27876 ft 500 kts 204°
2026-04-25 20:34 49.99912 -67.66656 27870 ft 499 kts 203°
2026-04-25 20:35 49.96751 -67.68723 27877 ft 499 kts 203°
2026-04-25 20:35 49.93617 -67.70771 27880 ft 499 kts 203°
2026-04-25 20:35 49.90369 -67.72888 27887 ft 499 kts 204°
2026-04-25 20:35 49.87106 -67.75015 27884 ft 499 kts 203°
2026-04-25 20:36 49.83815 -67.77156 27887 ft 500 kts 203°
2026-04-25 20:36 49.80611 -67.79236 27891 ft 499 kts 203°
2026-04-25 20:36 49.77547 -67.81222 27896 ft 499 kts 203°
2026-04-25 20:36 49.74380 -67.83273 27900 ft 499 kts 203°
2026-04-25 20:37 49.71184 -67.85338 27899 ft 499 kts 204°
2026-04-25 20:37 49.68089 -67.87337 27900 ft 500 kts 204°
2026-04-25 20:37 49.64883 -67.89404 27903 ft 499 kts 204°
2026-04-25 20:37 49.61635 -67.91496 27901 ft 499 kts 204°
2026-04-25 20:38 49.58331 -67.93619 27899 ft 500 kts 204°
2026-04-25 20:38 49.55090 -67.95700 27899 ft 500 kts 204°
2026-04-25 20:38 49.51850 -67.97778 27897 ft 500 kts 204°
2026-04-25 20:38 49.48630 -67.99838 27898 ft 500 kts 204°
2026-04-25 20:39 49.45395 -68.01907 27901 ft 500 kts 204°
2026-04-25 20:39 49.42199 -68.03947 27905 ft 499 kts 204°
2026-04-25 20:39 49.38955 -68.06014 27909 ft 499 kts 204°
2026-04-25 20:39 49.36883 -68.07333 27911 ft 499 kts 204°
2026-04-25 20:40 49.32709 -68.09987 27915 ft 500 kts 204°
2026-04-25 20:40 49.29539 -68.12000 27918 ft 500 kts 204°
2026-04-25 20:40 49.26361 -68.14014 27923 ft 500 kts 204°
2026-04-25 20:40 49.23185 -68.16023 27923 ft 500 kts 204°
2026-04-25 20:41 49.19939 -68.18075 27925 ft 501 kts 204°
2026-04-25 20:41 49.16729 -68.20101 27928 ft 501 kts 204°
2026-04-25 20:41 49.13535 -68.22130 27921 ft 501 kts 206°
2026-04-25 20:41 49.10670 -68.24841 27911 ft 497 kts 219°
2026-04-25 20:42 49.07882 -68.27842 27974 ft 499 kts 217°
2026-04-25 20:42 49.05036 -68.30828 27924 ft 499 kts 216°
2026-04-25 20:42 49.02200 -68.33769 27932 ft 498 kts 216°
2026-04-25 20:42 48.99342 -68.36716 27936 ft 498 kts 216°
2026-04-25 20:43 48.96530 -68.39611 27928 ft 498 kts 216°
2026-04-25 20:43 48.93642 -68.42580 27930 ft 499 kts 216°
2026-04-25 20:43 48.90787 -68.45509 27924 ft 499 kts 216°
2026-04-25 20:43 48.87961 -68.48404 27921 ft 499 kts 216°
2026-04-25 20:44 48.85101 -68.51327 27927 ft 500 kts 216°
2026-04-25 20:44 48.82245 -68.54243 27920 ft 500 kts 216°
2026-04-25 20:44 48.79409 -68.57138 27921 ft 500 kts 216°
2026-04-25 20:44 48.76562 -68.60036 27926 ft 500 kts 216°
2026-04-25 20:45 48.73711 -68.62937 27921 ft 500 kts 216°
2026-04-25 20:45 48.70822 -68.65874 27922 ft 500 kts 215°
2026-04-25 20:45 48.67925 -68.68811 27924 ft 500 kts 215°
2026-04-25 20:45 48.65034 -68.71741 27919 ft 500 kts 215°
2026-04-25 20:46 48.62163 -68.74644 27918 ft 501 kts 215°
2026-04-25 20:46 48.59323 -68.77513 27924 ft 501 kts 215°
2026-04-25 20:46 48.56426 -68.80433 27925 ft 501 kts 215°
2026-04-25 20:46 48.53567 -68.83314 27915 ft 501 kts 215°
2026-04-25 20:47 48.50660 -68.86240 27919 ft 501 kts 215°
2026-04-25 20:47 48.47763 -68.89150 27930 ft 502 kts 215°
2026-04-25 20:47 48.44871 -68.92050 27923 ft 502 kts 215°
2026-04-25 20:47 48.41976 -68.94949 27911 ft 502 kts 215°
2026-04-25 20:48 48.39079 -68.97849 27926 ft 502 kts 215°
2026-04-25 20:48 48.36171 -69.00753 27917 ft 502 kts 215°
2026-04-25 20:48 48.33269 -69.03648 27925 ft 502 kts 215°
2026-04-25 20:48 48.30350 -69.06556 27916 ft 502 kts 215°
2026-04-25 20:49 48.27428 -69.09463 27925 ft 502 kts 215°
2026-04-25 20:49 48.24534 -69.12337 27914 ft 502 kts 215°
2026-04-25 20:49 48.21621 -69.15228 27925 ft 502 kts 215°
2026-04-25 20:49 48.18710 -69.18110 27920 ft 503 kts 215°
2026-04-25 20:50 48.15786 -69.21002 27927 ft 502 kts 215°
2026-04-25 20:50 48.12852 -69.23903 27920 ft 502 kts 215°
2026-04-25 20:50 48.09963 -69.26753 27924 ft 502 kts 215°
2026-04-25 20:50 48.07066 -69.29607 27914 ft 502 kts 215°
2026-04-25 20:51 48.04133 -69.32492 27927 ft 502 kts 215°
2026-04-25 20:51 48.01167 -69.35405 27926 ft 502 kts 215°
2026-04-25 20:51 47.98213 -69.38303 27915 ft 502 kts 215°
2026-04-25 20:51 47.95281 -69.41176 27913 ft 501 kts 215°
2026-04-25 20:52 47.92389 -69.44005 27922 ft 502 kts 215°
2026-04-25 20:52 47.90405 -69.45944 27930 ft 502 kts 215°
2026-04-25 20:52 47.86457 -69.49798 27906 ft 501 kts 215°
2026-04-25 20:52 47.83519 -69.52657 27919 ft 501 kts 215°
2026-04-25 20:53 47.80523 -69.55577 27924 ft 502 kts 215°
2026-04-25 20:53 47.77638 -69.58379 27914 ft 501 kts 215°
2026-04-25 20:53 47.74691 -69.61237 27928 ft 500 kts 215°
2026-04-25 20:53 47.71762 -69.64075 27913 ft 500 kts 215°
2026-04-25 20:54 47.68825 -69.66920 27922 ft 500 kts 214°
2026-04-25 20:54 47.65866 -69.69778 27918 ft 500 kts 214°
2026-04-25 20:54 47.62922 -69.72620 27911 ft 500 kts 214°
2026-04-25 20:54 47.59993 -69.75442 27919 ft 500 kts 214°
2026-04-25 20:55 47.57069 -69.78256 27917 ft 500 kts 214°
2026-04-25 20:55 47.54112 -69.81096 27913 ft 500 kts 215°
2026-04-25 20:55 47.51144 -69.83947 27923 ft 501 kts 215°
2026-04-25 20:55 47.48158 -69.86808 27913 ft 500 kts 215°
2026-04-25 20:56 47.45200 -69.89642 27922 ft 499 kts 215°
2026-04-25 20:56 47.42215 -69.92495 27916 ft 499 kts 215°
2026-04-25 20:56 47.39306 -69.95270 27915 ft 499 kts 215°
2026-04-25 20:56 47.36395 -69.98045 27924 ft 498 kts 215°
2026-04-25 20:57 47.33424 -70.00874 27913 ft 499 kts 215°
2026-04-25 20:57 47.30447 -70.03704 27908 ft 499 kts 215°
2026-04-25 20:57 47.27502 -70.06501 27916 ft 500 kts 215°
2026-04-25 20:57 47.24530 -70.09318 27915 ft 499 kts 215°
2026-04-25 20:58 47.21527 -70.12158 27915 ft 500 kts 215°
2026-04-25 20:58 47.18533 -70.14992 27921 ft 499 kts 215°
2026-04-25 20:58 47.15546 -70.17809 27912 ft 499 kts 215°
2026-04-25 20:58 47.12519 -70.20668 27918 ft 500 kts 215°
2026-04-25 20:59 47.09498 -70.23515 27906 ft 499 kts 215°
2026-04-25 20:59 47.06540 -70.26294 27923 ft 499 kts 215°
2026-04-25 20:59 47.03632 -70.29028 27907 ft 498 kts 215°
2026-04-25 20:59 47.00672 -70.31801 27907 ft 499 kts 215°
2026-04-25 21:00 46.97748 -70.34544 27913 ft 499 kts 215°
2026-04-25 21:00 46.96752 -70.35471 27909 ft 499 kts 215°
2026-04-25 21:00 46.88914 -70.42794 27910 ft 500 kts 216°
2026-04-25 21:01 46.85909 -70.45591 27884 ft 500 kts 216°
2026-04-25 21:01 46.82948 -70.48347 27896 ft 499 kts 216°
2026-04-25 21:01 46.80022 -70.51065 27903 ft 500 kts 216°
2026-04-25 21:01 46.77055 -70.53822 27893 ft 499 kts 216°
2026-04-25 21:02 46.74063 -70.56593 27884 ft 499 kts 216°
2026-04-25 21:02 46.71150 -70.59290 27887 ft 499 kts 216°
2026-04-25 21:02 46.68209 -70.62009 27876 ft 499 kts 216°
2026-04-25 21:02 46.65300 -70.64695 27895 ft 498 kts 216°
2026-04-25 21:03 46.62378 -70.67387 27877 ft 498 kts 216°
2026-04-25 21:03 46.59445 -70.70091 27881 ft 498 kts 216°
2026-04-25 21:03 46.56442 -70.72852 27878 ft 499 kts 216°
2026-04-25 21:03 46.53494 -70.75558 27879 ft 498 kts 216°
2026-04-25 21:04 46.50549 -70.78265 27890 ft 497 kts 216°
2026-04-25 21:04 46.47581 -70.80977 27894 ft 498 kts 216°
2026-04-25 21:04 46.44643 -70.83669 27883 ft 497 kts 216°
2026-04-25 21:04 46.41692 -70.86359 27887 ft 497 kts 216°
2026-04-25 21:05 46.38717 -70.89080 27888 ft 498 kts 216°
2026-04-25 21:05 46.35776 -70.91753 27876 ft 496 kts 217°
2026-04-25 21:05 46.32793 -70.94469 27890 ft 497 kts 217°
2026-04-25 21:05 46.29832 -70.97164 27877 ft 498 kts 217°
2026-04-25 21:06 46.26850 -70.99868 27891 ft 496 kts 217°
2026-04-25 21:06 46.23866 -71.02573 27867 ft 495 kts 217°
2026-04-25 21:06 46.20879 -71.05280 27883 ft 495 kts 217°
2026-04-25 21:06 46.18883 -71.07088 27877 ft 496 kts 217°
2026-04-25 21:07 46.14954 -71.10631 27871 ft 497 kts 217°
2026-04-25 21:07 46.12014 -71.13287 27865 ft 497 kts 217°
2026-04-25 21:07 46.09059 -71.15944 27860 ft 497 kts 217°
2026-04-25 21:07 46.06124 -71.18588 27854 ft 495 kts 217°
2026-04-25 21:08 46.03155 -71.21253 27859 ft 495 kts 217°
2026-04-25 21:08 46.00219 -71.23887 27862 ft 494 kts 217°
2026-04-25 21:08 45.97264 -71.26537 27856 ft 494 kts 217°
2026-04-25 21:08 45.94250 -71.29233 27862 ft 495 kts 218°
2026-04-25 21:09 45.88299 -71.34550 27852 ft 494 kts 218°
2026-04-25 21:09 45.85351 -71.37177 27840 ft 493 kts 218°
2026-04-25 21:09 45.82425 -71.39782 27845 ft 493 kts 218°
2026-04-25 21:10 45.79476 -71.42406 27852 ft 492 kts 218°
2026-04-25 21:10 45.76482 -71.45069 27850 ft 493 kts 218°
2026-04-25 21:10 45.73512 -71.47698 27846 ft 493 kts 218°
2026-04-25 21:10 45.70513 -71.50359 27853 ft 494 kts 218°
2026-04-25 21:11 45.67527 -71.53001 27841 ft 493 kts 218°
2026-04-25 21:11 45.64553 -71.55627 27845 ft 492 kts 218°
2026-04-25 21:11 45.61577 -71.58256 27854 ft 493 kts 218°
2026-04-25 21:11 45.58643 -71.60841 27855 ft 493 kts 218°
2026-04-25 21:12 45.55700 -71.63430 27846 ft 492 kts 218°
2026-04-25 21:12 45.52740 -71.66031 27851 ft 491 kts 217°
2026-04-25 21:12 45.49777 -71.68636 27864 ft 492 kts 217°
2026-04-25 21:12 45.47798 -71.70372 27868 ft 492 kts 217°
2026-04-25 21:13 45.43810 -71.73862 27863 ft 492 kts 217°
2026-04-25 21:13 45.40846 -71.76458 27865 ft 491 kts 217°
2026-04-25 21:13 45.37898 -71.79034 27863 ft 491 kts 217°
2026-04-25 21:13 45.35022 -71.81544 27858 ft 490 kts 217°
2026-04-25 21:14 45.32105 -71.84085 27851 ft 491 kts 217°
2026-04-25 21:14 45.29175 -71.86637 27854 ft 491 kts 217°
2026-04-25 21:14 45.26198 -71.89230 27854 ft 490 kts 217°
2026-04-25 21:14 45.23291 -71.91750 27852 ft 488 kts 217°
2026-04-25 21:15 45.20384 -71.94272 27847 ft 489 kts 217°
2026-04-25 21:15 45.17466 -71.96799 27849 ft 489 kts 217°
2026-04-25 21:15 45.14563 -71.99311 27852 ft 488 kts 217°
2026-04-25 21:15 45.11570 -72.01899 27845 ft 490 kts 217°
2026-04-25 21:16 45.08608 -72.04456 27843 ft 489 kts 217°
2026-04-25 21:16 45.05626 -72.07025 27845 ft 489 kts 217°
2026-04-25 21:16 45.02724 -72.09525 27856 ft 488 kts 217°
2026-04-25 21:16 44.99812 -72.12024 27850 ft 488 kts 217°
2026-04-25 21:17 44.96903 -72.14527 27854 ft 487 kts 217°
2026-04-25 21:17 44.94015 -72.17002 27868 ft 487 kts 217°
2026-04-25 21:17 44.91150 -72.19460 27865 ft 488 kts 217°
2026-04-25 21:17 44.88214 -72.21973 27856 ft 485 kts 217°
2026-04-25 21:18 44.85352 -72.24418 27866 ft 485 kts 217°
2026-04-25 21:18 44.82463 -72.26885 27859 ft 485 kts 217°
2026-04-25 21:18 44.79563 -72.29363 27867 ft 483 kts 217°
2026-04-25 21:18 44.76698 -72.31799 27846 ft 485 kts 217°
2026-04-25 21:19 44.73738 -72.34318 27850 ft 484 kts 217°
2026-04-25 21:19 44.70800 -72.36813 27838 ft 480 kts 217°
2026-04-25 21:19 44.67941 -72.39240 27845 ft 478 kts 217°
2026-04-25 21:19 44.65061 -72.41681 27841 ft 479 kts 217°
2026-04-25 21:20 44.62142 -72.44154 27842 ft 480 kts 217°
2026-04-25 21:20 44.60197 -72.45800 27838 ft 480 kts 217°
2026-04-25 21:20 44.56338 -72.49059 27852 ft 479 kts 217°
2026-04-25 21:20 44.53450 -72.51495 27857 ft 479 kts 217°
2026-04-25 21:21 44.50522 -72.53966 27858 ft 478 kts 217°
2026-04-25 21:21 44.47642 -72.56391 27861 ft 479 kts 217°
2026-04-25 21:21 44.44759 -72.58813 27862 ft 478 kts 217°
2026-04-25 21:21 44.41858 -72.61253 27856 ft 477 kts 217°
2026-04-25 21:22 44.39006 -72.63644 27858 ft 478 kts 217°
2026-04-25 21:22 44.36099 -72.66078 27860 ft 477 kts 216°
2026-04-25 21:22 44.33218 -72.68489 27865 ft 478 kts 217°
2026-04-25 21:22 44.30409 -72.70838 27867 ft 477 kts 216°
2026-04-25 21:23 44.27588 -72.73195 27868 ft 478 kts 216°
2026-04-25 21:23 44.24770 -72.75543 27867 ft 477 kts 216°
2026-04-25 21:23 44.21990 -72.77856 27867 ft 476 kts 217°
2026-04-25 21:23 44.19266 -72.80128 27865 ft 477 kts 216°
2026-04-25 21:24 44.16547 -72.82386 27863 ft 475 kts 217°
2026-04-25 21:24 44.13806 -72.84665 27863 ft 476 kts 217°
2026-04-25 21:24 44.10980 -72.87009 27860 ft 475 kts 216°
2026-04-25 21:24 44.08163 -72.89341 27859 ft 476 kts 216°
2026-04-25 21:25 44.05258 -72.91748 27857 ft 476 kts 217°
2026-04-25 21:25 44.02443 -72.94074 27855 ft 474 kts 216°
2026-04-25 21:25 43.99592 -72.96427 27854 ft 474 kts 216°
2026-04-25 21:25 43.96775 -72.98753 27853 ft 474 kts 216°
2026-04-25 21:26 43.93942 -73.01088 27852 ft 474 kts 216°
2026-04-25 21:26 43.91128 -73.03398 27856 ft 474 kts 216°
2026-04-25 21:26 43.88274 -73.05746 27857 ft 475 kts 216°
2026-04-25 21:26 43.85452 -73.08067 27850 ft 475 kts 216°
2026-04-25 21:27 43.82584 -73.10415 27853 ft 473 kts 216°
2026-04-25 21:27 43.79751 -73.12739 27852 ft 473 kts 216°
2026-04-25 21:27 43.76949 -73.15034 27855 ft 474 kts 216°
2026-04-25 21:27 43.74102 -73.17359 27855 ft 474 kts 216°
2026-04-25 21:28 43.71200 -73.19728 27855 ft 474 kts 216°
2026-04-25 21:28 43.68336 -73.22064 27855 ft 472 kts 216°
2026-04-25 21:28 43.65509 -73.24364 27858 ft 472 kts 216°
2026-04-25 21:28 43.62632 -73.26710 27855 ft 472 kts 216°
2026-04-25 21:29 43.59815 -73.28999 27853 ft 473 kts 216°
2026-04-25 21:29 43.56976 -73.31307 27801 ft 473 kts 216°
2026-04-25 21:29 43.54198 -73.33559 27281 ft 474 kts 216°
2026-04-25 21:29 43.51413 -73.35815 26762 ft 469 kts 216°
2026-04-25 21:30 43.48621 -73.38077 26245 ft 465 kts 216°
2026-04-25 21:30 43.45864 -73.40301 25723 ft 461 kts 216°
2026-04-25 21:30 43.43060 -73.42570 25193 ft 460 kts 215°
2026-04-25 21:30 43.41189 -73.44076 24836 ft 457 kts 215°
2026-04-25 21:31 43.37505 -73.47047 24148 ft 453 kts 215°
2026-04-25 21:31 43.34810 -73.49213 23877 ft 447 kts 216°
2026-04-25 21:31 43.32094 -73.51399 23875 ft 448 kts 215°
2026-04-25 21:31 43.29405 -73.53562 23866 ft 451 kts 216°
2026-04-25 21:32 43.26688 -73.55741 23867 ft 453 kts 215°
2026-04-25 21:32 43.23949 -73.57938 23867 ft 452 kts 215°
2026-04-25 21:32 43.21188 -73.60146 23867 ft 452 kts 215°
2026-04-25 21:32 43.18248 -73.61847 23876 ft 459 kts 203°
2026-04-25 21:33 43.15155 -73.63291 23863 ft 462 kts 203°
2026-04-25 21:33 43.12135 -73.64645 23876 ft 461 kts 203°
2026-04-25 21:33 43.09040 -73.66016 23875 ft 460 kts 202°
2026-04-25 21:33 43.05973 -73.67370 23878 ft 460 kts 202°
2026-04-25 21:34 43.02903 -73.68721 23877 ft 460 kts 202°
2026-04-25 21:34 42.99863 -73.70055 23879 ft 459 kts 202°
2026-04-25 21:34 42.96781 -73.71410 23880 ft 459 kts 202°
2026-04-25 21:34 42.93681 -73.72768 23576 ft 464 kts 202°
2026-04-25 21:35 42.90568 -73.74131 22921 ft 460 kts 202°
2026-04-25 21:35 42.87514 -73.75474 22315 ft 451 kts 202°
2026-04-25 21:35 42.84566 -73.76757 21718 ft 445 kts 202°
2026-04-25 21:35 42.81711 -73.78005 21121 ft 442 kts 202°
2026-04-25 21:36 42.78822 -73.79265 20524 ft 439 kts 202°
2026-04-25 21:36 42.75975 -73.80508 19930 ft 434 kts 202°
2026-04-25 21:36 42.73129 -73.81745 19328 ft 430 kts 202°
2026-04-25 21:36 42.70287 -73.82985 18743 ft 441 kts 201°
2026-04-25 21:37 42.67353 -73.84262 18172 ft 445 kts 201°
2026-04-25 21:37 42.65387 -73.85115 17761 ft 441 kts 201°
2026-04-25 21:37 42.61554 -73.86778 16966 ft 432 kts 201°
2026-04-25 21:37 42.58715 -73.88008 16389 ft 426 kts 201°
2026-04-25 21:38 42.55895 -73.89228 15801 ft 421 kts 201°
2026-04-25 21:38 42.53127 -73.90429 15206 ft 418 kts 201°
2026-04-25 21:38 42.50366 -73.91621 14627 ft 414 kts 201°
2026-04-25 21:38 42.47642 -73.92793 14025 ft 411 kts 200°
2026-04-25 21:39 42.44942 -73.93961 13431 ft 408 kts 200°
2026-04-25 21:39 42.42246 -73.95123 12833 ft 405 kts 200°
2026-04-25 21:39 42.39575 -73.96274 12229 ft 402 kts 200°
2026-04-25 21:39 42.36941 -73.97398 11897 ft 397 kts 200°
2026-04-25 21:40 42.34436 -73.98480 11878 ft 399 kts 200°
2026-04-25 21:40 42.31874 -73.99580 11863 ft 401 kts 200°
2026-04-25 21:40 42.29214 -74.00720 11883 ft 401 kts 200°
2026-04-25 21:40 42.26537 -74.01865 11880 ft 401 kts 200°
2026-04-25 21:41 42.23915 -74.02988 11884 ft 400 kts 199°
2026-04-25 21:41 42.21222 -74.04063 11861 ft 398 kts 203°
2026-04-25 21:41 42.18610 -74.05284 11879 ft 400 kts 201°
2026-04-25 21:41 42.15990 -74.06472 11881 ft 400 kts 200°
2026-04-25 21:42 42.13367 -74.07647 11878 ft 398 kts 200°
2026-04-25 21:42 42.10731 -74.08809 11881 ft 401 kts 201°
2026-04-25 21:42 42.08074 -74.09985 11867 ft 399 kts 201°
2026-04-25 21:42 42.05463 -74.11165 11881 ft 398 kts 204°
2026-04-25 21:43 42.02796 -74.12334 11894 ft 399 kts 200°
2026-04-25 21:43 42.00120 -74.13493 11897 ft 399 kts 200°
2026-04-25 21:43 41.97502 -74.14634 11879 ft 398 kts 201°
2026-04-25 21:43 41.94844 -74.15788 11879 ft 398 kts 201°
2026-04-25 21:44 41.92253 -74.16916 11510 ft 388 kts 201°
2026-04-25 21:44 41.89737 -74.18014 11110 ft 374 kts 201°
2026-04-25 21:44 41.85033 -74.20128 10230 ft 336 kts 206°
2026-04-25 21:45 41.82854 -74.21079 9947 ft 325 kts 201°
2026-04-25 21:45 41.81432 -74.21684 9867 ft 313 kts 201°
2026-04-25 21:45 41.78856 -74.22778 9854 ft 289 kts 202°
2026-04-25 21:45 41.76989 -74.23586 9849 ft 277 kts 202°
2026-04-25 21:46 41.75138 -74.24390 9877 ft 280 kts 202°
2026-04-25 21:46 41.73302 -74.25188 9877 ft 282 kts 202°
2026-04-25 21:46 41.71464 -74.25989 9660 ft 286 kts 202°
2026-04-25 21:46 41.69691 -74.26760 9307 ft 283 kts 201°
2026-04-25 21:47 41.67841 -74.27564 8926 ft 280 kts 201°
2026-04-25 21:47 41.65982 -74.28300 8537 ft 278 kts 195°
2026-04-25 21:47 41.64100 -74.28843 8159 ft 275 kts 197°
2026-04-25 21:47 41.62307 -74.29585 7788 ft 271 kts 200°
2026-04-25 21:48 41.60525 -74.30366 7441 ft 267 kts 200°
2026-04-25 21:48 41.58793 -74.31136 7116 ft 256 kts 200°
2026-04-25 21:48 41.57130 -74.31883 6879 ft 249 kts 200°
2026-04-25 21:48 41.55474 -74.32629 6893 ft 254 kts 200°
2026-04-25 21:49 41.53789 -74.33388 6878 ft 255 kts 200°
2026-04-25 21:49 41.52124 -74.34144 6882 ft 255 kts 200°
2026-04-25 21:49 41.50424 -74.34916 6887 ft 257 kts 200°
2026-04-25 21:49 41.48724 -74.35686 6888 ft 260 kts 200°
2026-04-25 21:50 41.47020 -74.36455 6863 ft 259 kts 200°
2026-04-25 21:50 41.45305 -74.37234 6872 ft 259 kts 200°
2026-04-25 21:50 41.43598 -74.38004 6861 ft 257 kts 200°
2026-04-25 21:50 41.42475 -74.38511 6869 ft 257 kts 200°
2026-04-25 21:51 41.40211 -74.39506 6864 ft 258 kts 200°
2026-04-25 21:51 41.38510 -74.40237 6870 ft 259 kts 199°
2026-04-25 21:51 41.36786 -74.40977 6945 ft 256 kts 200°
2026-04-25 21:51 41.35099 -74.41702 7049 ft 258 kts 200°
2026-04-25 21:52 41.33382 -74.42442 6994 ft 259 kts 200°
2026-04-25 21:52 41.31652 -74.43185 6962 ft 259 kts 200°
2026-04-25 21:52 41.29949 -74.43915 6955 ft 258 kts 200°
2026-04-25 21:52 41.28238 -74.44650 6971 ft 259 kts 200°
2026-04-25 21:53 41.26517 -74.45386 6953 ft 258 kts 200°
2026-04-25 21:53 41.24806 -74.46121 6958 ft 259 kts 200°
2026-04-25 21:53 41.23111 -74.46846 6965 ft 258 kts 200°
2026-04-25 21:53 41.21397 -74.47578 6954 ft 256 kts 200°
2026-04-25 21:54 41.19709 -74.48301 6970 ft 255 kts 200°
2026-04-25 21:54 41.18016 -74.49028 6954 ft 255 kts 200°
2026-04-25 21:54 41.16356 -74.49732 6968 ft 256 kts 200°
2026-04-25 21:54 41.14694 -74.50442 6670 ft 261 kts 200°
2026-04-25 21:55 41.12997 -74.51170 5973 ft 254 kts 199°
2026-04-25 21:55 41.11459 -74.51832 5367 ft 248 kts 198°
2026-04-25 21:55 41.09932 -74.52487 4759 ft 248 kts 197°
2026-04-25 21:55 41.08393 -74.53143 4157 ft 249 kts 196°
2026-04-25 21:56 41.06869 -74.53767 3871 ft 244 kts 189°
2026-04-25 21:56 41.05831 -74.53904 3881 ft 243 kts 182°
2026-04-25 21:56 41.03677 -74.54111 3865 ft 247 kts 182°
2026-04-25 21:56 41.02105 -74.54260 3861 ft 248 kts 182°
2026-04-25 21:57 41.00456 -74.54412 3858 ft 247 kts 182°
2026-04-25 21:57 40.98849 -74.54560 3867 ft 247 kts 182°
2026-04-25 21:57 40.97184 -74.54714 3859 ft 247 kts 182°
2026-04-25 21:57 40.95571 -74.54865 3869 ft 247 kts 182°
2026-04-25 21:58 40.93915 -74.55018 3848 ft 246 kts 183°
2026-04-25 21:58 40.92224 -74.55174 3876 ft 247 kts 183°
2026-04-25 21:58 40.90504 -74.55331 3868 ft 247 kts 182°
2026-04-25 21:58 40.88812 -74.55489 3870 ft 245 kts 182°
2026-04-25 21:59 40.87148 -74.55640 3872 ft 246 kts 182°
2026-04-25 21:59 40.85461 -74.55797 3865 ft 246 kts 182°
2026-04-25 21:59 40.83794 -74.55949 3867 ft 246 kts 182°
2026-04-25 22:00 40.80515 -74.55892 3498 ft 245 kts 175°
2026-04-25 22:00 40.78896 -74.55804 3251 ft 243 kts 175°
2026-04-25 22:00 40.77259 -74.55717 2991 ft 242 kts 175°
2026-04-25 22:00 40.75654 -74.55628 2756 ft 244 kts 175°
2026-04-25 22:01 40.74062 -74.55541 2527 ft 245 kts 174°
2026-04-25 22:01 40.72404 -74.55454 2377 ft 235 kts 174°
2026-04-25 22:01 40.70875 -74.55378 2344 ft 210 kts 174°
2026-04-25 22:01 40.69927 -74.55328 2374 ft 201 kts 174°
2026-04-25 22:02 40.68080 -74.55224 2365 ft 201 kts 173°
2026-04-25 22:02 40.66701 -74.55148 2363 ft 203 kts 174°
2026-04-25 22:02 40.65288 -74.55069 2367 ft 203 kts 171°
2026-04-25 22:02 40.63914 -74.54830 2372 ft 202 kts 168°
2026-04-25 22:03 40.62619 -74.54596 2354 ft 200 kts 168°
2026-04-25 22:03 40.61271 -74.54354 2372 ft 200 kts 168°
2026-04-25 22:03 40.59892 -74.54099 2373 ft 201 kts 168°
2026-04-25 22:03 40.58543 -74.53856 2343 ft 192 kts 168°
2026-04-25 22:04 40.57256 -74.53625 2379 ft 189 kts 165°
2026-04-25 22:04 40.56132 -74.52816 2181 ft 186 kts 128°
2026-04-25 22:04 40.55521 -74.51366 1954 ft 183 kts 112°
2026-04-25 22:04 40.55116 -74.49840 1869 ft 178 kts 108°
2026-04-25 22:05 40.54797 -74.48289 1861 ft 180 kts 105°
2026-04-25 22:05 40.54521 -74.46734 1768 ft 176 kts 103°
2026-04-25 22:05 40.54284 -74.45297 1761 ft 157 kts 103°
2026-04-25 22:05 40.54063 -74.43911 1770 ft 160 kts 103°
2026-04-25 22:06 40.53849 -74.42531 1775 ft 161 kts 103°
2026-04-25 22:06 40.53633 -74.41143 1777 ft 161 kts 102°
2026-04-25 22:06 40.53421 -74.39777 1772 ft 161 kts 102°
2026-04-25 22:06 40.53203 -74.38355 1770 ft 161 kts 103°
2026-04-25 22:07 40.52981 -74.36910 1777 ft 161 kts 102°
2026-04-25 22:07 40.52834 -74.35957 1759 ft 160 kts 102°
2026-04-25 22:07 40.52540 -74.34050 1497 ft 162 kts 102°
2026-04-25 22:07 40.52325 -74.32652 1461 ft 145 kts 102°
2026-04-25 22:08 40.52137 -74.31429 1453 ft 133 kts 103°
2026-04-25 22:08 40.51947 -74.30208 1485 ft 138 kts 102°
2026-04-25 22:08 40.51757 -74.28969 1382 ft 140 kts 101°
2026-04-25 22:08 40.51918 -74.27799 1252 ft 144 kts 62°
2026-04-25 22:09 40.52722 -74.27000 1147 ft 155 kts 31°
2026-04-25 22:09 40.53657 -74.26401 1018 ft 153 kts 32°
2026-04-25 22:09 40.54575 -74.25803 876 ft 150 kts 31°
2026-04-25 22:09 40.55509 -74.25209 889 ft 151 kts 31°
2026-04-25 22:10 40.56428 -74.24622 883 ft 152 kts 31°
2026-04-25 22:10 40.57355 -74.24033 882 ft 152 kts 31°
2026-04-25 22:10 40.58268 -74.23455 884 ft 152 kts 31°
2026-04-25 22:10 40.59162 -74.22885 883 ft 152 kts 31°
2026-04-25 22:11 40.60059 -74.22315 880 ft 152 kts 32°
2026-04-25 22:11 40.60976 -74.21732 881 ft 152 kts 31°
2026-04-25 22:11 40.61887 -74.21152 879 ft 152 kts 31°
2026-04-25 22:11 40.62788 -74.20584 879 ft 153 kts 31°
2026-04-25 22:12 40.63678 -74.20021 886 ft 152 kts 31°
2026-04-25 22:12 40.64563 -74.19450 874 ft 152 kts 32°
2026-04-25 22:12 40.65415 -74.18868 704 ft 146 kts 32°
2026-04-25 22:12 40.65978 -74.18495 553 ft 143 kts 32°
2026-04-25 22:13 40.67084 -74.17807 288 ft 142 kts 29°
2026-04-25 22:13 40.67912 -74.17322 83 ft 140 kts 27°
2026-04-25 22:13 40.68708 -74.16825 12 ft 120 kts 35°
2026-04-25 22:13 40.69238 -74.16481 12 ft 62 kts 28°
2026-04-25 22:14 40.69480 -74.16334 11 ft 28 kts 25°
2026-04-25 22:14 40.69633 -74.16294 11 ft 23 kts 359°
2026-04-25 22:14 40.69730 -74.16303 11 ft 5 kts 355°
2026-04-25 22:14 40.69766 -74.16306 11 ft 7 kts 356°
2026-04-25 22:15 40.69817 -74.16310 11 ft 8 kts 355°
2026-04-25 22:15 40.69855 -74.16354 11 ft 9 kts 292°
2026-04-25 22:15 40.69882 -74.16447 11 ft 13 kts 294°
2026-04-25 22:16 40.69852 -74.16642 11 ft 16 kts 206°
2026-04-25 22:16 40.69791 -74.16738 11 ft 15 kts 244°
2026-04-25 22:16 40.69740 -74.16833 11 ft 13 kts 207°
2026-04-25 22:16 40.69658 -74.16888 11 ft 15 kts 224°
2026-04-25 22:17 40.69619 -74.17011 11 ft 18 kts 251°
2026-04-25 22:17 40.69588 -74.17104 11 ft 4 kts 202°
2026-04-25 22:17 40.69556 -74.17092 11 ft 6 kts 166°
2026-04-25 22:17 40.69522 -74.17097 11 ft 6 kts 240°
2026-04-25 22:18 40.69513 -74.17153 11 ft 7 kts 262°
2026-04-25 22:18 40.69507 -74.17201 11 ft 0 kts 252°
2026-04-25 22:18 40.69501 -74.17215 11 ft 3 kts 239°
2026-04-25 22:18 40.69491 -74.17236 11 ft 3 kts 237°
2026-04-25 22:19 40.69481 -74.17255 11 ft 2 kts 236°
2026-04-25 22:19 40.69473 -74.17271 11 ft 0 kts 236°